Regional Weather Roundup
Issued by NWS

Home | Current Version | Previous Version | Text Only | Print | Product List | Glossary On
Versions: 1 2 3 4 5 6 7 8 9 10 11 12 13 14 15 16 17 18 19 20 21 22 23 24 25 26 27 28 29 30 31 32 33 34 35 36 37
000
ASUS46 KSEW 231510
RWRWA

WASHINGTON REGIONAL WEATHER ROUNDUP
NATIONAL WEATHER SERVICE SEATTLE WA
800 AM PDT THU OCT 23 2014

NOTE:"FAIR" INDICATES FEW OR NO CLOUDS BELOW 12,000 FEET WITH NO
SIGNIFICANT WEATHER AND/OR OBSTRUCTIONS TO VISIBILITY.

WAZ505-507>509-231600-
SEATTLE, TACOMA, EVERETT, AND VICINITY

CITY           SKY/WX    TMP DP  RH WIND       PRES   REMARKS
EVERETT        CLOUDY    51  47  86 S18       29.71F
BOEING FIELD   LGT RAIN  54  48  80 SE13G21   29.74S
RENTON         LGT RAIN  52  49  89 VRB7      29.74F
SEATAC AIRPORT LGT RAIN  51  48  89 SE20G26   29.75F
JBLM-MCCHORD   LGT RAIN  50  50  99 SE12      29.74F
PUYALLUP       NOT AVBL
JBLM-FT LEWIS  DRIZZLE   50  49  96 SE13      29.74S
TACOMA NARROWS LGT RAIN  51  46  83 S8        29.73F
$$

WAZ001-503-506-510-514-515-231600-
NORTH INTERIOR

CITY           SKY/WX    TMP DP  RH WIND       PRES   REMARKS
BELLINGHAM     LGT RAIN  54  48  80 SE16G28   29.68S
FRIDAY HARBOR  LGT RAIN  51  49  92 SE8       29.69R
EASTSOUND      LGT RAIN  54  50  87 S7        29.66R
PORT ANGELES     N/A    N/A N/A N/A MISG      29.68R
NAS WHIDBEY    CLOUDY    56  49  77 SE18G28   29.70R
BURLINGTON     CLOUDY   N/A N/A N/A S8        29.71R
$$

WAZ020-022-039-040-504-511-512-231600-
SOUTHWEST INTERIOR

CITY           SKY/WX    TMP DP  RH WIND       PRES   REMARKS
SHELTON        CLOUDY    50  47  89 CALM      29.70R
OLYMPIA        CLOUDY    50  47  89 W7        29.74R
CHEHALIS       CLOUDY    52  50  93 S5        29.75F
KELSO          CLOUDY    54  48  82 CALM      29.81R
VANCOUVER      LGT RAIN  55  53  93 SE7       29.77R
SCAPPOOSE, OR  LGT RAIN  54  53  97 CALM      29.76R
PORTLAND, OR   LGT RAIN  55  54  96 E8        29.78R
$$

WAZ021-516-517-231600-
WASHINGTON COAST

CITY           SKY/WX    TMP DP  RH WIND       PRES   REMARKS
FORKS          CLOUDY    48  47  96 NE5       29.66R
HOQUIAM        RAIN      52  51  97 SE12      29.72R FOG
ASTORIA, OR    LGT RAIN  52  49  89 S7        29.73S
$$

WAZ019-023-024-040-518-519-231600-
CASCADE MOUNTAINS AND COLUMBIA GORGE

CITY           SKY/WX    TMP DP  RH WIND       PRES   REMARKS
STAMPEDE PASS  NOT AVBL
TROUTDALE, OR  LGT RAIN  55  53  93 NE3       29.77S
THE DALLES, OR CLOUDY    53  50  89 NW3       29.78F
$$

WAZ026-027-041>044-520-521-231600-
EAST SLOPES

CITY           SKY/WX    TMP DP  RH WIND       PRES   REMARKS
OMAK           LGT RAIN  51  42  71 SW6       29.73S
WENATCHEE      LGT RAIN  49  44  83 E3        29.74F
ELLENSBURG     LGT RAIN  46  43  89 SE3       29.76S
YAKIMA         CLOUDY    46  44  93 NW6       29.76S
$$

WAZ028-034-035-231600-
COLUMBIA BASIN

CITY           SKY/WX    TMP DP  RH WIND       PRES   REMARKS
EPHRATA        LGT RAIN  48  46  93 W3        29.76R
MOSES LAKE     CLOUDY    53  48  83 S5        29.77R
PASCO          CLOUDY    57  53  86 S9        29.77F
HERMISTON, OR  CLOUDY    55  52  89 CALM      29.77S
$$

WAZ036>038-231600-
NORTHEAST WASHINGTON

CITY           SKY/WX    TMP DP  RH WIND       PRES   REMARKS
SPOKANE GEIGER LGT RAIN  50  48  93 S10       29.80R
SPOKANE FELTS  LGT RAIN  53  48  83 SW6       29.80R
FAIRCHILD AFB  RAIN      50  49  97 S13       29.79R
COEURDALENE,ID CLOUDY    52  48  87 S12       29.80R
DEER PARK      CLOUDY    51  48  89 S9        29.80R
$$

WAZ029>033-231600-
SOUTHEAST WASHINGTON

CITY           SKY/WX    TMP DP  RH WIND       PRES   REMARKS
PULLMAN        CLOUDY    50  46  86 E8        29.84R
LEWISTON, ID   LGT RAIN  56  47  71 E8        29.81R
WALLA WALLA    CLOUDY    55  52  89 CALM      29.78S
PENDLETON, OR  CLOUDY    52  50  93 E5        29.78S
$$



USA.gov is the U.S. government's official web portal to all federal, state and local government web resources and services.